Home > Weather > Virginia Beach > Past weeks

Flag for USA Weather for the Past 2 Weeks in Virginia Beach, Virginia, USA

Now
65 °F

Low clouds.


Feels Like: 65 °F
Forecast: 60 / 67 °F
Wind: 7 mph from Northeast

Location: Virginia Beach - Oceana

Current Time: May 4, 2016 at 1:28:19 PM

Latest Report: May 4, 2016 at 12:56 PM


Visibility: 10 mi

Pressure: 29.65 "Hg

Humidity: 73%

Dew Point: 56 °F

Location of Virginia BeachLocation

Historic Weather in Virginia Beach — Graph

°F

Virginia Beach Temperature Yesterday

Maximum temperature yesterday: 75 °F (at 4:56 PM)
Minimum temperature yesterday: 66 °F (at 10:56 PM)
Average temperature yesterday: 72 °F

High & Low Weather Summary for the Past Weeks

 TemperatureHumidityPressure
High89 °F (May 2, 2:56 PM)87% (Apr 23, 6:56 AM)30.30 "Hg (Apr 23, 6:56 AM)
Low44 °F (Apr 21, 5:56 AM)19% (Apr 19, 1:56 PM)29.67 "Hg (May 4, 3:56 AM)
Average66 °F65%29.98 "Hg
* Reported Apr 19 11:56 AM — May 4 11:56 AM, Virginia Beach, Weather by CustomWeather, © 2016

Note: Actual official high and low records may vary slightly from our data, if they occured in-between our weather recording intervals... More about our weather records

Advertising

Virginia Beach Weather History for the Previous 24 Hours

Scroll right to see more
 ConditionsComfort  
Time TempWeatherWind HumidityBarometerVisibility
11:56 AM
Wed, May 4
62 °FLow clouds.5 mph78%29.67 "Hg10 mi
10:56 AM61 °FLow clouds.7 mph81%29.68 "Hg7 mi
9:56 AM59 °FLow clouds.5 mph84%29.69 "Hg9 mi
9:04 AM59 °FFog.6 mph84%29.69 "Hg10 mi
8:56 AM60 °FFog.6 mph83%29.69 "Hg10 mi
7:56 AM58 °FFog.10 mph84%29.70 "Hg4 mi
6:56 AM57 °FFog.14 mph87%29.69 "Hg3 mi
5:56 AM58 °FFog.12 mph84%29.70 "Hg3 mi
4:56 AM60 °FFog.12 mph83%29.67 "Hg1 mi
3:56 AM63 °FLight rain. Fog.13 mph84%29.67 "Hg2 mi
2:56 AM65 °FFog.5 mph81%29.68 "Hg6 mi
1:56 AM65 °FMostly cloudy.No wind85%29.69 "Hg10 mi
12:56 AM64 °FPartly cloudy.No wind84%29.70 "Hg8 mi
11:56 PM
Tue, May 3
66 °FLight rain. Mostly cloudy.5 mph81%29.73 "Hg10 mi
10:56 PM66 °FLight rain. Mostly cloudy.7 mph78%29.74 "Hg7 mi
9:56 PM67 °FThunderstorms. Overcast.12 mph79%29.75 "Hg10 mi
8:56 PM73 °FThunderstorms. Passing clouds.7 mph74%29.73 "Hg10 mi
7:56 PM74 °FScattered clouds.7 mph74%29.72 "Hg10 mi
6:56 PM73 °FBroken clouds.7 mph76%29.73 "Hg10 mi
6:03 PM74 °FBroken clouds.8 mph76%29.72 "Hg10 mi
5:56 PM74 °FMostly cloudy.8 mph76%29.72 "Hg10 mi
4:56 PM75 °FMostly cloudy.5 mph71%29.73 "Hg10 mi
3:56 PM74 °FMostly cloudy.3 mph74%29.74 "Hg10 mi
2:56 PM74 °FMore clouds than sun.8 mph71%29.77 "Hg10 mi
1:56 PM72 °FCloudy.14 mph73%29.78 "Hg10 mi
Weather by CustomWeather, © 2016

See weather overviewHow to use our weather pages